Weather in Sergeevka

Ukraine / Odesa District     46°01′41″N   30°22′12″E
temp.,
°C
wind,
m/s
gust,
m/s
humid.,
%
clouds,
%
prec.,
mm/h
press.,
hPa
HPBL,
m
23 october, sat
sat2300:00+15wsw355998 0.0 101679
03:00+14wnw336189 0.0 101626
06:00+14n3457100 0.0 101651
09:00+15n3751100 0.0 1017197
12:00+13n2370100 0.3 1019123
15:00+14wnw136873 0.5 1019254
18:00+14s227423 0.0 101815
21:00+13nne5105493 0.1 1021271
24 october, sun
sun2400:00+11n61150100 0.0 1023275
03:00+10n51043100 0.0 1024321
06:00+10nnw5104498 0.0 1025520
09:00+9nnw7115298 0.0 1027730
12:00+12nnw810415 0.0 10271389
15:00+13nnw910387 0.0 10271918
18:00+10nnw811465 0.0 1029859
21:00+8nw48535 0.0 1031233
25 october, mon
mon2500:00+6nw48605 0.0 1032194
03:00+5n48665 0.0 1032193
06:00+4n46715 0.0 1033139
09:00+6nne45625 0.0 1034472
12:00+9ne44475 0.0 10341210
15:00+10ene33424 0.0 10331258
18:00+7ese33560 0.0 103282
21:00+7e33560 0.0 103368
26 october, tue
tue2600:00+7ese33625 0.0 103278
03:00+7ese22655 0.0 103266
06:00+6ene12665 0.0 103175
09:00+9ese365920 0.0 1030444
12:00+12ese55515 0.0 10301267
15:00+12se55515 0.0 10281113
18:00+9ese45600 0.0 1027137
21:00+8se33620 0.0 102790
27 october, wed
wed2700:00+8e22613 0.0 102671
03:00+8sse11642 0.0 102571
06:00+7sse01744 0.0 102562
09:00+9nw126621 0.0 102593
12:00+12nw125319 0.0 10251081
15:00+14n1348100 0.0 10241256
18:00+10se3370100 0.0 102475
21:00+9sw11735 0.0 102526